AO-07 1 07530U 74089B 15196.88150941 -.00000042 00000-0 11636-4 0 9999 2 07530 101.5225 171.5781 0011471 246.9449 141.7050 12.53615393860858 FO-29 1 24278U 96046B 15197.44409244 -.00000040 00000-0 -31818-5 0 9994 2 24278 098.5427 162.2814 0350415 355.1581 114.1726 13.53054544933988 SO-33 1 25509U 98061B 15196.84292075 .00000359 00000-0 57966-4 0 9998 2 25509 031.4337 089.0334 0347908 324.5934 033.2045 14.30020994873526 RS-22 1 27939U 03042A 15197.42512114 .00000612 00000-0 11963-3 0 9994 2 27939 097.8451 358.0227 0012444 297.7348 062.2594 14.66100145630474 HO-68 1 36122U 09072B 15197.42960154 -.00000059 00000-0 -43517-4 0 9996 2 36122 100.1913 241.1900 0008038 053.9020 306.2833 13.16328275268308 AO-73 1 39444U 13066AE 15196.75504420 .00001455 00000-0 19168-3 0 9992 2 39444 097.7289 258.4631 0060724 043.8292 316.7716 14.80340882 87648 EO-79 1 40025U 14033R 15197.28194184 .00001261 00000-0 14599-3 0 9993 2 40025 097.9497 097.5864 0014417 089.0356 271.2512 14.87237687 58124 UO-11 1 14781U 84021B 15197.39537892 .00000499 00000-0 68647-4 0 9992 2 14781 097.7996 253.7558 0008063 345.6341 014.4642 14.82452460686353 AO-16 1 20439U 90005D 15196.43798491 .00000094 00000-0 50724-4 0 9994 2 20439 098.5410 132.2196 0012069 078.3277 037.7377 14.32556395330781 LO-19 1 20442U 90005G 15196.41741485 .00000092 00000-0 49760-4 0 9993 2 20442 098.5119 131.6711 0012963 067.2586 292.9967 14.32748218330989 AO-27 1 22825U 93061C 15197.10540661 .00000052 00000-0 37553-4 0 9998 2 22825 098.7103 147.2253 0007595 218.2567 205.5209 14.29892285137071 IO-26 1 22826U 93061D 15196.51354819 .00000079 00000-0 47642-4 0 9990 2 22826 098.7045 146.7972 0008223 211.6369 148.4319 14.30210297137138 GO-32 1 25397U 98043D 15197.13439911 .00000012 00000-0 24016-4 0 9994 2 25397 098.5214 146.6719 0000516 172.1485 254.9484 14.23553254883910 NO-44 1 26931U 01043C 15196.89063345 .00000059 00000-0 54432-4 0 9995 2 26931 067.0518 103.0529 0005750 270.7234 089.3209 14.30328732719902 SO-50 1 27607U 02058C 15196.85645618 .00000473 00000-0 87689-4 0 9998 2 27607 064.5554 111.2565 0082309 282.7794 076.4119 14.74788613675516 CO-55 1 27844U 03031E 15196.90858506 .00000168 00000-0 96328-4 0 9992 2 27844 098.6951 205.0255 0008942 211.8120 218.4687 14.21823580624521 CO-57 1 27848U 03031J 15196.52908935 .00000165 00000-0 95251-4 0 9997 2 27848 098.7048 204.5735 0008733 221.1580 290.9092 14.21467655624377 AO-51 1 28375U 04025K 15196.83543425 .00000093 00000-0 40815-4 0 9996 2 28375 098.2933 136.4593 0081538 242.7224 116.5644 14.41679267580614 CP3 1 31129U 07012N 15196.45952523 .00000522 00000-0 12218-3 0 9999 2 31129 097.9826 161.0000 0095362 225.1498 255.5407 14.55875351437234 CO-65 1 32785U 08021C 15196.85971513 .00001158 00000-0 13517-3 0 9992 2 32785 097.6469 239.3642 0012696 338.4716 146.9004 14.86958642390495 PRISM 1 33493U 09002B 15197.44118486 .00003540 00000-0 34197-3 0 9991 2 33493 098.2483 036.2719 0014919 232.4746 127.5140 14.93459576350942 SOHLA-1 1 33496U 09002E 15197.40977876 .00000267 00000-0 51361-4 0 9992 2 33496 098.2159 325.5450 0007598 075.0937 321.0980 14.71392831347472 TISAT-1 1 36799U 10035E 15197.24875111 .00002047 00000-0 22530-3 0 9993 2 36799 098.0182 297.9654 0014371 110.7862 301.6491 14.88655851271282 STUDSAT 1 36801U 10035G 15196.98648421 .00014398 00000-0 81285-3 0 9993 2 36801 098.0643 318.0463 0006140 054.5899 080.0721 15.13239701272322 ALMASAT-1 1 38078U 12006B 15197.20695234 .00017536 34012-5 29530-3 0 9998 2 38078 069.4545 167.1904 0476363 217.5295 139.1717 14.80204183179332 CUBEBUG-1 1 39153U 13018D 15197.23821150 .00000981 00000-0 13871-3 0 9990 2 39153 098.0172 281.5199 0017970 155.3457 204.8617 14.79304580119773 ESTCUBE-1 1 39161U 13021C 15197.44661046 .00000978 00000-0 16661-3 0 9998 2 39161 098.0702 280.1182 0008680 214.3044 145.7614 14.71226909117547 DUCHIFAT-1 1 40021U 14033M 15197.35702344 .00001700 00000-0 19030-3 0 9993 2 40021 097.9516 098.0450 0015175 088.7752 271.5202 14.88163774 58144 NANOSATCBR1 1 40024U 14033Q 15197.28820295 .00001500 00000-0 17040-3 0 9991 2 40024 097.9499 097.7390 0014360 088.5172 271.7688 14.87730617 58128 DTUSAT-2 1 40030U 14033W 15197.24730304 .00001295 00000-0 15115-3 0 9997 2 40030 097.9485 097.2710 0013893 083.1167 277.1629 14.86862776 58100 ANTELSAT 1 40034U 14033AA 15197.25671561 .00001535 00000-0 24100-3 0 9992 2 40034 097.9408 088.6589 0061169 027.4474 332.9932 14.72796431 57574 MET-2/21 1 22782U 93055A 15196.51622397 .00000053 00000-0 34735-4 0 9994 2 22782 082.5473 221.1886 0021133 239.8301 284.7998 13.83771802104514 OKEAN-4 1 23317U 94066A 15196.89935280 .00000725 00000-0 78563-4 0 9994 2 23317 082.5369 058.4624 0018807 232.2378 198.2659 14.86742004121573 NOAA-14 1 23455U 94089A 15197.49283720 .00000004 00000-0 24716-4 0 9995 2 23455 098.7517 278.3419 0009433 003.8382 066.7525 14.14047299 59674 NOAA-15 1 25338U 98030A 15197.49346500 .00000127 00000-0 72426-4 0 9990 2 25338 098.7732 196.1498 0011839 084.3019 275.9510 14.25644250893017 RESURS 1 25394U 98043A 15196.52846142 -.00000034 00000-0 35722-5 0 9993 2 25394 098.4670 150.5917 0001575 144.0929 328.8175 14.24458774884318 FENGYUN1 1 25730U 99025A 15197.14282520 .00001714 00000-0 93199-3 0 9996 2 25730 098.9430 161.9937 0022626 063.7077 064.4912 14.13488827833147 OKEAN-0 1 25860U 99039A 15196.52766043 .00000497 00000-0 79610-4 0 9993 2 25860 098.0963 164.6268 0001012 104.9394 007.2548 14.76087566860162 NOAA-16 1 26536U 00055A 15197.40847371 .00000022 00000-0 35816-4 0 9990 2 26536 098.9409 263.3572 0011175 145.6396 214.5500 14.13102387763788 NOAA-17 1 27453U 02032A 15197.50165260 .00000021 00000-0 26291-4 0 9993 2 27453 098.3416 182.0497 0013009 096.1639 264.1024 14.24891886678834 NOAA-18 1 28654U 05018A 15197.53593557 .00000092 00000-0 75370-4 0 9991 2 28654 099.1850 190.8963 0013341 236.1886 123.8015 14.12218194523217 NOAA-19 1 33591U 09005A 15197.50374153 .00000130 00000-0 95783-4 0 9996 2 33591 098.9914 147.4554 0015191 087.3746 272.9164 14.11956446331622 HUBBLE 1 20580U 90037B 15197.43064884 .00001689 00000-0 96986-4 0 9990 2 20580 028.4707 321.2744 0002889 187.1672 224.1744 15.07558752184223 ISS 1 25544U 98067A 15197.45342006 .00017070 00000-0 25490-3 0 9995 2 25544 051.6453 297.8710 0001058 259.2366 193.1148 15.55150384952591 CO-58 1 28895U 05043F 15196.51104148 .00000669 00000-0 13940-3 0 9991 2 28895 097.8214 022.8031 0016449 202.9983 157.0485 14.62836803517732 FALCON 1 30776U 07006E 15196.41965609 .00006129 00000-0 24322-3 0 9992 2 30776 035.4248 184.1026 0002611 225.4796 263.3062 15.24771971460611 MAST 1 31126U 07012K 15196.85943816 .00000330 00000-0 80962-4 0 9994 2 31126 097.9627 163.5946 0090179 205.6677 211.1007 14.56094581437669 CAPE1 1 31130U 07012P 15197.39867156 .00000395 00000-0 95566-4 0 9998 2 31130 097.9845 161.3621 0096077 224.1696 135.1803 14.55547291437133 COMPASS 1 32787U 08021E 15197.13596242 .00002108 00000-0 21916-3 0 9996 2 32787 097.6491 243.9165 0011923 322.5340 037.5046 14.90875207390820 AAUSAT2 1 32788U 08021F 15197.10959390 .00001658 00000-0 16911-3 0 9999 2 32788 097.6501 245.4537 0011317 319.3934 040.6440 14.91934545390918 DO-64 1 32789U 08021G 15197.13430067 .00005015 00000-0 40450-3 0 9994 2 32789 097.6774 256.8227 0010100 311.2939 101.2779 15.00292710391426 CO-66 1 32791U 08021J 15197.12477017 .00001528 00000-0 16838-3 0 9990 2 32791 097.6489 241.6649 0012930 329.7034 030.3435 14.88894472390625 RS-30 1 32953U 08025A 15197.29114403 .00000010 00000-0 -13620-7 0 9995 2 32953 082.5034 316.1387 0018866 020.7616 339.4229 12.43061963324226 METEOR-M 1 35865U 09049A 15197.34980013 .00000055 00000-0 43885-4 0 9992 2 35865 098.4986 236.6488 0003231 051.0285 008.2194 14.22038451302357 RS-38 1 35869U 09049E 15197.15490057 .00000007 00000-0 21894-4 0 9992 2 35869 098.4892 236.0756 0005265 037.5181 322.6379 14.22302431302374 JUGNU 1 37839U 11058B 15196.91314228 .00000357 00000-0 48754-4 0 9994 2 37839 019.9626 028.3694 0018997 003.0381 139.3177 14.12477725194281 SRMSAT 1 37841U 11058D 15196.96666307 .00000345 00000-0 44885-4 0 9998 2 37841 019.9729 055.3317 0011819 288.3236 211.3127 14.10487779194018 RAX-2 1 37853U 11061D 15197.17758620 .00004297 00000-0 26568-3 0 9996 2 37853 101.7081 062.4738 0194924 350.9416 120.8235 14.96472930201440 AUBIESAT 1 37854U 11061E 15196.69497137 .00005015 00000-0 29997-3 0 9994 2 37854 101.7151 065.4270 0185605 347.2161 052.2908 14.98650696201494 HRBE 1 37855U 11061F 15196.51996281 .00005307 00000-0 31769-3 0 9994 2 37855 101.7147 063.6815 0193896 350.7910 008.9761 14.97466027201393 HORYU-2 1 38340U 12025D 15196.89149354 .00001130 00000-0 17842-3 0 9993 2 38340 098.3151 167.5639 0012281 012.1219 348.0282 14.74383640169760 RS-40 1 38735U 12041C 15197.33968796 .00000040 00000-0 21992-3 0 9998 2 38735 082.4735 041.8019 0017389 114.4256 245.8638 12.42569087134537 PROITERES 1 38756U 12047B 15197.42020348 .00000707 00000-0 11074-3 0 9999 2 38756 098.2220 297.2052 0011604 199.1041 160.9730 14.75864855153310 BEESAT-3 1 39134U 13015E 15196.51770346 .00005417 00000-0 31670-3 0 9992 2 39134 064.8741 326.8512 0030005 247.8964 111.8973 15.12543950122984 BEESAT-2 1 39136U 13015G 15197.13369037 .00004269 00000-0 26381-3 0 9991 2 39136 064.8746 327.5184 0030199 247.1228 112.6706 15.10858481123030 ZACUBE-1 1 39417U 13066B 15196.73360839 .00001205 00000-0 16190-3 0 9999 2 39417 097.7284 258.1770 0061389 044.7592 315.8550 14.79796952 88856 TRITON-1 1 39427U 13066M 15196.72703942 .00001131 00000-0 19136-3 0 9996 2 39427 097.7131 245.7958 0117166 076.2887 285.1330 14.66712763 88051 DELFIN3XT 1 39428U 13066N 15197.09753384 .00001710 00000-0 28884-3 0 9996 2 39428 097.7132 244.3997 0125696 080.1794 281.3576 14.65495356 87974 GOMX-1 1 39430U 13066Q 15197.10215555 .00001470 00000-0 27888-3 0 9990 2 39430 097.7041 238.1244 0155125 098.6341 263.2473 14.58123433 87593 MO-76 1 39436U 13066W 15196.73980359 .00014517 00000-0 94271-3 0 9991 2 39436 097.7452 273.0811 0020920 011.2246 348.9444 15.07970583 89796 LO-74 1 39440U 13066AA 15197.10969378 .00001091 00000-0 16206-3 0 9991 2 39440 097.7225 253.6297 0083188 055.1034 305.7958 14.74609157 88595 PUCPSAT-1 1 39442U 13066AC 15197.19055030 .00001573 00000-0 17253-3 0 9991 2 39442 097.7381 266.5462 0033638 029.9513 330.3620 14.88718098 88188 SPROUT 1 39770U 14029E 15197.04387725 .00002860 00000-0 35036-3 0 9997 2 39770 097.8723 293.4688 0011298 107.5279 252.7119 14.83911720 61916 POPSAT-HIP1 1 40028U 14033U 15197.45738286 .00001860 00000-0 21292-3 0 9995 2 40028 097.9515 097.8447 0015796 085.0998 275.1990 14.87108487 58136 EO-80 1 40032U 14033Y 15197.25745559 .00001303 00000-0 15227-3 0 9992 2 40032 097.9492 097.2935 0013823 083.1568 277.1220 14.86787532 58100 VELOX-1 1 40057U 14034E 15197.42210799 .00001835 00000-0 27440-3 0 9992 2 40057 098.2149 276.0036 0012332 140.0964 220.1165 14.75929512 56193 DAURIA DX 1 1 40071U 14037C 15197.32608131 .00000862 00000-0 12018-3 0 9995 2 40071 098.3551 269.9398 0009491 139.7350 220.4567 14.80440936 55108 UKUBE-1 1 40074U 14037F 15197.39406271 .00001834 00000-0 23672-3 0 9994 2 40074 098.3565 270.8835 0005618 140.2904 219.8722 14.82290622 55160 HODOYOSHI-1 1 40299U 14070B 15197.39458569 .00003927 00000-0 18751-3 0 9994 2 40299 097.4557 278.5465 0014030 037.5781 089.7370 15.19549842 38259 CHUBUSAT-1 1 40300U 14070C 15197.43196907 .00004388 00000-0 21854-3 0 9997 2 40300 097.4526 277.7867 0023118 036.2946 024.7013 15.17864443 38215 QSAT-EOS 1 40301U 14070D 15197.42944499 .00008357 00000-0 41506-3 0 9990 2 40301 097.4488 277.1041 0032755 036.0287 092.5093 15.17449094 38171 TSUBAME 1 40302U 14070E 15197.41565225 .00005053 00000-0 28167-3 0 9994 2 40302 097.4466 275.7840 0044027 038.9602 321.4797 15.13199992 38097 FIREBIRD FU3 1 40377U 15003B 15197.04611893 .00006968 00000-0 34501-3 0 9990 2 40377 099.1166 235.8609 0157571 158.7001 202.0880 15.07916705 24902 FIREBIRD FU4 1 40378U 15003C 15197.04366213 .00006775 00000-0 33516-3 0 9995 2 40378 099.1167 235.8653 0157827 158.6556 202.1349 15.07929319 24907 GRIFEX 1 40379U 15003D 15197.29357655 .00004691 00000-0 23823-3 0 9998 2 40379 099.1174 236.0474 0159090 159.1804 201.5998 15.07157971 24939 LAMBDA-SAT 1 40458U 98067GB 15136.30676273 .20783109 12527-4 14817-2 0 9995 2 40458 051.6075 233.7697 0010355 318.5347 043.1720 16.39926603 21161 NO-84 1 40654U 15197.21651472 .00017173 00000-0 44252-3 0 00675 2 40654 054.9961 094.6054 0242964 321.9571 036.4482 15.14529138008574 NO-83 1 40655U 15197.22702684 .00010904 00000-0 28868-3 0 00679 2 40655 055.0072 094.7520 0244735 321.7098 036.6733 15.13950686008575 /EX
